Location: Laura�t
(43.9341°N, 0.2497°E)
Time: 23:03:51
(UTC+00:00)

HJ-1C - Pass Details

Date: 03 March 2021
Orbit: 428 x 440 km, 97.1° (Epoch: 17 April)

Event Time Altitude Azimuth Distance (km) Brightness Sun altitude
Rises 18:30:52 0° 151° (SSE) 2,415 6.8 -8.1°
Reaches altitude 10° 18:32:56 10° 144° (SE) 1,549 5.8 -8.5°
Maximum altitude 18:36:04 40° 73° (ENE) 659 3.8 -9.1°
Drops below altitude 10° 18:39:13 10° 3° (N) 1,555 6.1 -9.6°
Sets 18:41:18 0° 356° (N) 2,427 7.2 -10.0°
